Location: Caltech
(34.1382°N, 118.1253°W)
Time: 09:28:10
(UTC-07:00)

Cosmos 1758 Rocket - Visible Passes

Search period start: 30 May 2016 00:00
Search period end: 09 June 2016 00:00
Orbit: 601 x 637 km, 82.5° (Epoch: 30 May)

Date Brightness Start Highest point End Pass type
(mag) Time Alt. Az. Time Alt. Az. Time Alt. Az.
30 May 4.7 21:17:36 23° ESE 21:18:39 25° E 21:22:13 10° NE visible
30 May 5.7 22:54:42 17° WSW 22:56:26 21° WNW 22:59:45 10° NNW visible
31 May 3.7 21:34:20 32° SSE 21:36:02 50° E 21:40:15 10° NNE visible
31 May 6.5 23:13:11 10° W 23:14:09 11° WNW 23:15:08 10° WNW visible
01 Jun 3.6 21:51:01 26° SSW 21:53:29 78° W 21:57:50 10° N visible
02 Jun 5.4 20:31:21 10° ESE 20:33:33 14° E 20:35:45 10° NE visible
02 Jun 4.9 22:07:37 14° SW 22:11:01 37° W 22:15:04 10° NNW visible
03 Jun 4.6 20:47:11 10° SSE 20:50:50 27° E 20:54:30 10° NNE visible
03 Jun 6.0 22:25:31 10° WSW 22:28:40 19° WNW 22:31:49 10° NNW visible
04 Jun 3.6 21:03:58 10° S 21:08:13 54° E 21:12:27 10° NNE visible
05 Jun 3.7 21:21:21 10° SSW 21:25:41 72° W 21:30:00 10° N visible
06 Jun 5.1 21:39:16 10° SW 21:43:15 34° W 21:47:12 10° NNW visible
07 Jun 6.2 21:57:55 10° WSW 22:00:53 18° WNW 22:03:51 10° NNW visible
08 Jun 3.6 20:36:09 10° S 20:40:25 59° E 20:44:40 10° NNE visible
